{"data":{"norad_id":46359,"intl_designator":"2020-062AL","name":"STARLINK-1707","alt_names":[],"object_type":"PAYLOAD","status":"ACTIVE","operator":null,"country":"US","launch_date":"2020-09-03","launch_site_code":"AFETR","launch_vehicle":null,"mission":null,"orbit_class":"UNKNOWN","rcs_meters":null,"size_class":null,"mass_kg":null,"dimensions":null,"purposes":["comms"],"wikipedia_slug":null,"has_3d_model":false,"image_url":null,"decayed_at":null,"tle_current":{"epoch":"2026-05-25T06:00:02.000160Z","epoch_age_seconds":63519,"freshness":"FRESH","line1":"1 46359U 20062AL  26145.25002315  .00151684  00000+0  73042-3 0  9996","line2":"2 46359  53.0187 254.2041 0004823 334.5132 200.9910 15.81677496  5997","mean_motion":15.81677496,"eccentricity":0.0004823,"inclination_deg":53.0187,"raan_deg":254.2041,"arg_perigee_deg":334.5132,"mean_anomaly_deg":200.991,"bstar":0.00073042,"rev_number":599,"period_min":91.0425800229,"perigee_km":322.46321385439,"apogee_km":328.92973162219,"semimajor_km":6703.8334727383,"source":"CELESTRAK","updated_at":"2026-05-25T13:38:16.473756Z"}}}